• In Hungary
  • List of Countries
  • For 7 days
  • Water Temperature
  • Satellite Maps
  • Weather Map
  • News
  • Weather Widgets
  • user-avatar
    Login

    Hourly Weather Trudovoe

    Today, 21 July, Saturday

    Time Temperature Precipitation Wind Pressure Humidity
    00:00 +26°C° 0 mm 4 mps 744 mmHg 63%
    01:00 +25°C° 0 mm 4 mps 744 mmHg 66%
    02:00 +25°C° 0 mm 4 mps 744 mmHg 69%
    03:00 +23°C° 0 mm 4 mps 744 mmHg 72%
    04:00 +23°C° 0 mm 4 mps 744 mmHg 74%
    05:00 +23°C° 0.2 mm 5 mps 744 mmHg 74%
    06:00 +25°C° 0.2 mm 5 mps 744 mmHg 75%
    07:00 +24°C° 0.2 mm 6 mps 744 mmHg 75%
    08:00 +26°C° 0.1 mm 6 mps 744 mmHg 70%
    09:00 +28°C° 0.1 mm 6 mps 744 mmHg 65%
    10:00 +28°C° 0 mm 6 mps 744 mmHg 61%
    11:00 +29°C° 0.1 mm 6 mps 744 mmHg 56%
    12:00 +30°C° 0.1 mm 6 mps 744 mmHg 52%
    13:00 +32°C° 0.1 mm 6 mps 744 mmHg 48%
    14:00 +32°C° 0 mm 6 mps 744 mmHg 47%
    15:00 +32°C° 0 mm 6 mps 744 mmHg 47%
    16:00 +32°C° 0 mm 7 mps 744 mmHg 47%
    17:00 +30°C° 0 mm 7 mps 744 mmHg 51%
    18:00 +28°C° 0 mm 8 mps 744 mmHg 56%
    19:00 +27°C° 0 mm 8 mps 744 mmHg 60%
    20:00 +24°C° 0 mm 8 mps 744 mmHg 63%
    21:00 +23°C° 0 mm 8 mps 744 mmHg 66%
    22:00 +22°C° 0 mm 8 mps 744 mmHg 69%
    23:00 +21°C° 0 mm 8 mps 744 mmHg 70%

    Tomorrow, 22 July, Sunday

    Time Temperature Precipitation Wind Pressure Humidity
    00:00 +21°C° 0 mm 7 mps 744 mmHg 70%
    01:00 +20°C° 0 mm 6 mps 744 mmHg 71%
    02:00 +20°C° 0 mm 6 mps 744 mmHg 71%
    03:00 +20°C° 0 mm 7 mps 744 mmHg 72%
    04:00 +20°C° 0 mm 7 mps 744 mmHg 72%
    05:00 +18°C° 0 mm 7 mps 745 mmHg 71%
    06:00 +18°C° 0 mm 8 mps 745 mmHg 69%
    07:00 +18°C° 0 mm 9 mps 745 mmHg 68%
    08:00 +20°C° 0 mm 8 mps 745 mmHg 64%
    09:00 +21°C° 0 mm 8 mps 745 mmHg 61%
    10:00 +22°C° 0 mm 8 mps 746 mmHg 57%
    11:00 +23°C° 0 mm 8 mps 746 mmHg 54%
    12:00 +24°C° 0 mm 8 mps 746 mmHg 50%
    13:00 +26°C° 0 mm 8 mps 746 mmHg 46%
    14:00 +26°C° 0 mm 8 mps 746 mmHg 44%
    15:00 +27°C° 0 mm 8 mps 746 mmHg 42%
    16:00 +27°C° 0 mm 8 mps 746 mmHg 39%
    17:00 +26°C° 0 mm 8 mps 747 mmHg 40%
    18:00 +24°C° 0 mm 8 mps 747 mmHg 40%
    19:00 +24°C° 0 mm 7 mps 747 mmHg 41%
    20:00 +23°C° 0 mm 8 mps 748 mmHg 41%
    21:00 +22°C° 0 mm 8 mps 748 mmHg 40%
    22:00 +21°C° 0 mm 8 mps 749 mmHg 40%
    23:00 +20°C° 0 mm 8 mps 749 mmHg 40%

    Day after tomorrow, 23 July, Monday

    Time Temperature Precipitation Wind Pressure Humidity
    00:00 +18°C° 0 mm 8 mps 749 mmHg 40%
    01:00 +18°C° 0 mm 8 mps 750 mmHg 41%
    02:00 +17°C° 0 mm 8 mps 750 mmHg 43%
    03:00 +17°C° 0 mm 7 mps 750 mmHg 45%
    04:00 +16°C° 0 mm 7 mps 750 mmHg 47%
    05:00 +16°C° 0 mm 7 mps 751 mmHg 49%
    06:00 +16°C° 0 mm 7 mps 751 mmHg 50%
    07:00 +16°C° 0 mm 7 mps 751 mmHg 51%
    08:00 +18°C° 0 mm 7 mps 751 mmHg 48%
    09:00 +20°C° 0 mm 7 mps 752 mmHg 44%
    10:00 +21°C° 0 mm 7 mps 752 mmHg 41%
    11:00 +22°C° 0 mm 7 mps 752 mmHg 38%
    12:00 +24°C° 0 mm 7 mps 752 mmHg 35%
    13:00 +26°C° 0 mm 6 mps 752 mmHg 32%
    14:00 +27°C° 0 mm 6 mps 752 mmHg 31%
    15:00 +27°C° 0 mm 6 mps 751 mmHg 30%
    16:00 +28°C° 0 mm 6 mps 751 mmHg 29%
    17:00 +27°C° 0 mm 5 mps 751 mmHg 32%
    18:00 +26°C° 0 mm 5 mps 751 mmHg 35%
    19:00 +25°C° 0 mm 5 mps 751 mmHg 38%
    20:00 +23°C° 0 mm 5 mps 752 mmHg 41%
    21:00 +22°C° 0 mm 5 mps 752 mmHg 45%
    22:00 +20°C° 0 mm 5 mps 753 mmHg 49%
    23:00 +19°C° 0 mm 5 mps 753 mmHg 50%

    24 July, Tuesday

    Time Temperature Precipitation Wind Pressure Humidity
    00:00 +19°C° 0 mm 5 mps 753 mmHg 52%
    01:00 +17°C° 0 mm 5 mps 753 mmHg 54%
    02:00 +18°C° 0 mm 4 mps 753 mmHg 56%
    03:00 +17°C° 0 mm 4 mps 753 mmHg 58%
    04:00 +15°C° 0 mm 4 mps 753 mmHg 60%
    05:00 +17°C° 0 mm 4 mps 754 mmHg 58%
    06:00 +18°C° 0 mm 4 mps 754 mmHg 57%
    07:00 +19°C° 0 mm 5 mps 754 mmHg 55%
    08:00 +21°C° 0 mm 5 mps 754 mmHg 50%
    09:00 +23°C° 0 mm 5 mps 754 mmHg 44%
    10:00 +26°C° 0 mm 5 mps 754 mmHg 38%
    11:00 +27°C° 0 mm 5 mps 754 mmHg 35%
    12:00 +28°C° 0 mm 5 mps 754 mmHg 32%
    13:00 +30°C° 0 mm 5 mps 754 mmHg 29%
    14:00 +30°C° 0 mm 5 mps 754 mmHg 29%
    15:00 +32°C° 0 mm 5 mps 754 mmHg 29%
    16:00 +32°C° 0 mm 5 mps 753 mmHg 28%
    17:00 +30°C° 0 mm 4 mps 753 mmHg 32%
    18:00 +30°C° 0 mm 4 mps 753 mmHg 36%
    19:00 +29°C° 0 mm 4 mps 753 mmHg 40%
    20:00 +27°C° 0 mm 4 mps 754 mmHg 45%
    21:00 +26°C° 0 mm 4 mps 754 mmHg 50%
    22:00 +25°C° 0 mm 5 mps 754 mmHg 55%
    23:00 +23°C° 0 mm 4 mps 754 mmHg 57%

    25 July, Wednesday

    Time Temperature Precipitation Wind Pressure Humidity
    00:00 +22°C° 0 mm 4 mps 754 mmHg 59%
    01:00 +22°C° 0 mm 4 mps 754 mmHg 60%
    02:00 +21°C° 0 mm 4 mps 754 mmHg 61%
    03:00 +21°C° 0 mm 4 mps 754 mmHg 62%
    04:00 +20°C° 0 mm 3 mps 755 mmHg 63%
    05:00 +21°C° 0 mm 4 mps 755 mmHg 60%
    06:00 +22°C° 0 mm 4 mps 755 mmHg 57%
    07:00 +23°C° 0 mm 4 mps 755 mmHg 54%
    08:00 +26°C° 0 mm 4 mps 755 mmHg 48%
    09:00 +28°C° 0 mm 5 mps 755 mmHg 42%
    10:00 +30°C° 0 mm 5 mps 755 mmHg 35%
    11:00 +32°C° 0 mm 5 mps 755 mmHg 33%
    12:00 +32°C° 0 mm 5 mps 755 mmHg 31%
    13:00 +33°C° 0 mm 5 mps 755 mmHg 28%
    14:00 +33°C° 0 mm 5 mps 755 mmHg 29%
    15:00 +33°C° 0 mm 5 mps 755 mmHg 29%
    16:00 +33°C° 0 mm 5 mps 754 mmHg 29%
    17:00 +33°C° 0 mm 5 mps 754 mmHg 33%
    18:00 +32°C° 0 mm 4 mps 754 mmHg 36%
    19:00 +30°C° 0 mm 4 mps 754 mmHg 40%
    20:00 +28°C° 0 mm 4 mps 754 mmHg 44%
    21:00 +27°C° 0 mm 4 mps 755 mmHg 47%
    22:00 +26°C° 0 mm 4 mps 755 mmHg 51%
    23:00 +25°C° 0 mm 4 mps 755 mmHg 54%

    26 July, Thursday

    Time Temperature Precipitation Wind Pressure Humidity
    00:00 +23°C° 0 mm 4 mps 755 mmHg 57%
    01:00 +23°C° 0 mm 4 mps 755 mmHg 60%
    02:00 +22°C° 0 mm 4 mps 755 mmHg 61%
    03:00 +22°C° 0 mm 4 mps 755 mmHg 62%
    04:00 +21°C° 0 mm 4 mps 755 mmHg 63%
    05:00 +22°C° 0 mm 4 mps 755 mmHg 60%
    06:00 +22°C° 0 mm 4 mps 755 mmHg 57%
    07:00 +23°C° 0 mm 5 mps 756 mmHg 54%
    08:00 +26°C° 0 mm 5 mps 756 mmHg 48%
    09:00 +27°C° 0 mm 5 mps 756 mmHg 42%
    10:00 +29°C° 0 mm 5 mps 756 mmHg 36%
    11:00 +30°C° 0 mm 5 mps 756 mmHg 34%
    12:00 +32°C° 0 mm 5 mps 755 mmHg 31%
    13:00 +32°C° 0 mm 5 mps 755 mmHg 28%
    14:00 +32°C° 0 mm 5 mps 755 mmHg 27%
    15:00 +32°C° 0 mm 5 mps 755 mmHg 26%
    16:00 +32°C° 0 mm 5 mps 755 mmHg 26%
    17:00 +32°C° 0 mm 5 mps 755 mmHg 29%
    18:00 +30°C° 0 mm 5 mps 755 mmHg 33%
    19:00 +29°C° 0 mm 4 mps 755 mmHg 36%
    20:00 +27°C° 0 mm 4 mps 755 mmHg 41%
    21:00 +26°C° 0 mm 4 mps 755 mmHg 46%
    22:00 +23°C° 0 mm 4 mps 755 mmHg 51%
    23:00 +23°C° 0 mm 4 mps 755 mmHg 52%
    Show more